Tracking 23758 objects as of 27-Oct-2021
HD Live streaming from Space Station
objects crossing your sky now

IRIDIUM 33 DEB

Track IRIDIUM 33 DEB now!
10-day predictions


NORAD ID: 33876
Int'l Code: 1997-051AV
Perigee: 583.6 km
Apogee: 591.9 km
Inclination: 86.2 °
Period: 96.3 minutes
Semi major axis: 6958 km
RCS: 0.074 m2 (small)
Launch date: September 14, 1997
Source: United States (US)
Launch site: TYURATAM MISSILE AND SPACE COMPLEX (TTMTR)

Note: This is SATELLITE DEBRIS
aabbcc
Your satellite tracking list
Your tracking list is empty




NASA's NSSDC Master Catalog

Two Line Element Set (TLE):
1 33876U 97051AV  21300.30437984  .00016347  00000-0  14693-2 0  9999
2 33876  86.1876 146.5536 0005975 322.2163  37.8646 14.95571614677737
Source of the keplerian elements: AFSPC